Weather History for Fort Leonard Wood, MO

Change the Weather History Date:

Monday, November 26, 2012

  Actual Average Record
Temperature  
Mean Temperature 37 °F -  
Max Temperature 45 °F 51 °F 69 °F (1998)
Min Temperature 27 °F 36 °F 15 °F (1996)
Degree Days  
Heating Degree Days 28    
Moisture  
Dew Point 28 °F    
Average Humidity 67    
Maximum Humidity 85    
Minimum Humidity 46    
Precipitation  
Precipitation 0.00 in - - ()
Sea Level Pressure  
Sea Level Pressure 30.17 in    
Wind  
Wind Speed 8 mph (NNE)    
Max Wind Speed 16 mph    
Max Gust Speed 24 mph    
Visibility 10 miles    
Events Rain    
Averages and records for this station are not official NWS values.
T = Trace of Precipitation, MM = Missing Value Source: NWS Daily Summary

Daily Weather History Graph

Daily Weather History Graph

Search for Another Location

Airport:

Trip Planner

Search our weather history database for the weather conditions in past years. The results will help you decide how hot, cold, wet, or windy it might be!

Date:

Astronomy

Nov. 26, 2012 Rise Set
Actual Time 7:00 AM CST 4:51 PM CST
Civil Twilight 6:32 AM CST 5:19 PM CST
Nautical Twilight 5:59 AM CST 5:52 PM CST
Astronomical Twilight 5:28 AM CST 6:23 PM CST
Moon 3:42 PM CST (11/26) 5:12 AM CST (11/26)
Length of Visible Light 10h 47m
Length of Day
9h 50m
Waxing Gibbous, 97% of the Moon is Illuminated
Nov 26
Waxing Gibbous
Nov 28
Full
Dec 6
Last Quarter
Dec 13
New
Dec 19
First Quarter

Hourly Weather History & Observations

Time (CST) Temp. Windchill Dew Point Humidity Pressure Visibility Wind Dir Wind Speed Gust Speed Precip Events Conditions
12:55 AM 40.6 °F 36.7 °F 29.1 °F 64% 29.99 in 10.0 mi ENE 5.8 mph - N/A   Clear
1:55 AM 39.0 °F 35.7 °F 29.1 °F 68% 30.00 in 10.0 mi NE 4.6 mph - N/A   Clear
2:55 AM 37.8 °F 34.2 °F 29.1 °F 71% 30.01 in 10.0 mi NNE 4.6 mph - N/A   Clear
3:55 AM 36.7 °F 32.0 °F 29.7 °F 76% 30.01 in 10.0 mi NNE 5.8 mph - N/A   Clear
4:55 AM 34.3 °F 28.4 °F 29.8 °F 84% 30.03 in 10.0 mi NNE 6.9 mph - N/A   Clear
5:55 AM 34.3 °F 27.7 °F 29.8 °F 84% 30.04 in 10.0 mi NNE 8.1 mph - N/A   Clear
6:55 AM 34.0 °F 28.8 °F 29.3 °F 83% 30.07 in 10.0 mi NNE 5.8 mph - N/A   Clear
7:55 AM 34.7 °F 28.8 °F 29.1 °F 80% 30.10 in 10.0 mi NE 6.9 mph - N/A   Clear
8:55 AM 37.6 °F 31.6 °F 29.8 °F 74% 30.12 in 10.0 mi NE 8.1 mph - N/A   Clear
9:55 AM 40.5 °F 34.6 °F 30.6 °F 68% 30.14 in 10.0 mi NE 9.2 mph - N/A   Mostly Cloudy
10:55 AM 43.3 °F 37.7 °F 31.3 °F 62% 30.14 in 10.0 mi NNE 10.4 mph - N/A   Mostly Cloudy
11:55 AM 43.9 °F 38.3 °F 30.7 °F 60% 30.14 in 10.0 mi NNE 10.4 mph - N/A   Mostly Cloudy
12:55 PM 45.0 °F 39.3 °F 30.6 °F 57% 30.13 in 10.0 mi NNE 11.5 mph - N/A   Overcast
1:55 PM 44.4 °F 38.6 °F 29.7 °F 56% 30.15 in 10.0 mi North 11.5 mph - N/A   Overcast
2:37 PM 44.6 °F 38.4 °F 28.4 °F 53% 30.15 in 10.0 mi North 12.7 mph 21.9 mph N/A Rain Light Rain
2:55 PM 43.9 °F 37.2 °F 24.8 °F 47% 30.17 in 10.0 mi North 13.8 mph - 0.00 in   Light Drizzle
3:04 PM 42.8 °F 35.4 °F 23.0 °F 46% 30.17 in 10.0 mi North 15.0 mph - N/A   Overcast
3:55 PM 42.3 °F 34.4 °F 23.2 °F 47% 30.21 in 10.0 mi North 16.1 mph 24.2 mph 0.00 in   Overcast
4:55 PM 40.1 °F 32.4 °F 25.3 °F 56% 30.24 in 10.0 mi North 13.8 mph 21.9 mph N/A   Overcast
5:55 PM 39.6 °F 31.0 °F 27.0 °F 61% 30.28 in 10.0 mi North 16.1 mph 24.2 mph N/A   Overcast
6:55 PM 38.5 °F 32.1 °F 26.2 °F 61% 30.31 in 10.0 mi North 9.2 mph - N/A   Overcast
7:55 PM 36.1 °F 29.3 °F 26.8 °F 69% 30.33 in 10.0 mi NNW 9.2 mph - N/A   Partly Cloudy
8:55 PM 33.1 °F 26.9 °F 26.2 °F 76% 30.36 in 10.0 mi NNW 6.9 mph - N/A   Clear
9:55 PM 31.1 °F 25.4 °F 25.7 °F 80% 30.38 in 10.0 mi NNW 5.8 mph - N/A   Clear
10:55 PM 29.1 °F 20.6 °F 25.2 °F 85% 30.39 in 10.0 mi NNW 9.2 mph - N/A   Clear
11:55 PM 27.5 °F 19.3 °F 23.4 °F 84% 30.40 in 10.0 mi North 8.1 mph - N/A   Clear